Flag for U.S.A. Weather past 2 weeks in Prudhoe Bay, Alaska, U.S.A.

Now
-12 °F

Sunny.


Feels Like: -29 °F
Forecast: -7 / 0 °F
Wind: 8 mph from Southwest

Location: Deadhorse Airport

Current Time: Mar 6, 2015 at 1:03:33 PM

Latest Report: Mar 6, 2015 at 11:53 AM


Visibility: 10 mi

Pressure: 30.01 "Hg

Humidity: 74%

Dew point: -18 °F

Location of Prudhoe BayLocation

Historic Weather in Prudhoe Bay — Graph

°F

Prudhoe Bay temperature yesterday

Maximum temperature yesterday: -3 °F (at 8:53 PM)
Minimum temperature yesterday: -14 °F (at 7:53 AM)
Average temperature yesterday: -7 °F

Past Weeks' High & Low Weather Summary

 TemperatureHumidityPressure
High30 °F (Feb 27, 7:00 AM)93% (Feb 27, 5:53 AM)30.75 "Hg (Feb 27, 5:53 AM)
Low-21 °F (Mar 1, 7:53 PM)66% (Feb 25, 8:53 AM)29.58 "Hg (Mar 3, 5:04 PM)
Average6 °F78%30.08 "Hg
* Reported Feb 19 11:53 AM — Mar 6 11:53 AM, Prudhoe Bay, Weather by CustomWeather, © 2015

Note: Actual official high and low records may vary slightly from our data, if they occured in-between our weather recording intervals... More about our weather records

Advertising

Prudhoe Bay weather history for previous 24 hours

 ConditionsComfort  
Time TempWeatherWind HumidityBarometerVisibility
11:53 AM
Fri, Mar 6
-12 °FSunny.8 mph74%30.01 "Hg10 mi
10:53 AM-13 °FScattered clouds.7 mph82%30.02 "Hg10 mi
9:53 AM-12 °FScattered clouds.10 mph81%30.02 "Hg10 mi
8:53 AMN/ALight snow.7 mphN/A30.02 "Hg9 mi
7:53 AM-8 °FLight snow. Mostly cloudy.7 mph78%30.02 "Hg7 mi
6:53 AM-7 °FOvercast.8 mph75%30.01 "Hg10 mi
5:53 AM-5 °FLight snow. Mostly cloudy.6 mphN/A30.01 "Hg7 mi
4:53 AM-4 °FLight snow. Overcast.3 mph79%30.01 "Hg3 mi
3:53 AM-3 °FLight snow. Overcast.No wind78%29.99 "Hg3 mi
2:53 AM-3 °FLight snow. Overcast.5 mph78%29.97 "Hg5 mi
1:53 AM-3 °FLight snow. Overcast.6 mph78%29.96 "Hg5 mi
12:53 AM-3 °FLight snow. Mostly cloudy.6 mph78%29.96 "Hg7 mi
11:53 PM
Thu, Mar 5
-3 °FLight snow. Overcast.8 mph78%29.95 "Hg5 mi
10:53 PM-3 °FLight snow. Mostly cloudy.12 mph75%29.94 "Hg6 mi
9:53 PM-3 °FLight snow. Overcast.14 mph75%29.93 "Hg4 mi
8:53 PM-3 °FLight snow. Overcast.16 mph75%29.92 "Hg4 mi
7:53 PM-4 °FOvercast.16 mph79%29.93 "Hg10 mi
6:53 PM-4 °FOvercast.17 mphN/A29.93 "Hg10 mi
5:53 PM-5 °FOvercast.16 mph75%29.94 "Hg10 mi
4:53 PM-5 °FScattered clouds.17 mph75%29.94 "Hg10 mi
3:53 PM-6 °FPartly sunny.17 mph75%29.95 "Hg10 mi
2:53 PM-6 °FPartly sunny.14 mph75%29.97 "Hg10 mi
1:53 PM-7 °FPartly sunny.14 mph79%29.98 "Hg10 mi
Weather by CustomWeather, © 2015

See weather overviewHow to use our weather pages